ORBCOMM FM04

Last updated on Wed Sep 23 2026 00:03:43 GMT+0000 (Coordinated Universal Time)

1 25159U 98007C 26265.09755002 .00000514 00000+0 22114-3 0 9997 2 25159 107.9606 8.8751 0040063 159.6059 200.6692 14.35872457490509
UTC large
Height (km)
Speed (km/s)
/
Latitude / Longitude
Inclination (degrees)
Orbital Period (minutes)
Azimuth
Elevation
Range (km)
Doppler Factor

Next 0 passes for location: London (51.5072 / 0.1276)

No passes found over London.
ORBCOMM FM04